Regional Weather Roundup
Issued by NWS

Home | Current Version | Previous Version | Text Only | Print | Product List | Glossary Off
Versions: 1 2 3 4 5 6 7 8 9 10 11 12 13 14 15 16 17 18 19 20 21 22 23 24 25 26 27 28 29 30 31 32 33 34 35 36 37 38 39 40 41 42 43 44 45 46 47 48 49 50

000
ASUS46 KSTO 201415
RWRCA

NORTHERN AND CENTRAL CA REGIONAL WEATHER ROUNDUP
NATIONAL WEATHER SERVICE SACRAMENTO CA
600 AM PST SAT JAN 20 2018

NOTE: FAIR INDICATES FEW OR NO CLOUDS BELOW 12,000 FEET WITH NO
SIGNIFICANT WEATHER AND/OR OBSTRUCTIONS TO VISIBILITY.

CAZ001-003-201500-
NORTHWEST AREA

CITY           SKY/WX    TMP DP  RH WIND       PRES   REMARKS
CRESCENT CITY  CLOUDY    44  40  85 E6        30.22R
UKIAH          CLEAR     33  30  88 CALM      30.17R
$$

CAZ006-505>513-201500-
BAY AREA

CITY           SKY/WX    TMP DP  RH WIND       PRES   REMARKS
SANTA ROSA     CLEAR     33  33 100 W5        30.13R WCI  29
SAN RAFAEL     N/A       MM  MM  MM MISG
NAPA           CLEAR     29  28  96 CALM      30.14R FOG
CONCORD        CLEAR     37  34  89 S6        30.14R WCI  32
OAKLAND CITY   N/A       MM  MM  MM MISG
OAKLAND        CLEAR     39  36  89 CALM      30.14R
SAN FRAN CITY  N/A       46  MM  63 MISG
SAN FRAN ARPT  CLEAR     46  36  68 W9        30.14R
LIVERMORE      CLEAR     35  34  96 CALM      30.12R
HAYWARD        CLEAR     39  32  76 CALM      30.13R
REDWOOD CITY   N/A       37  MM  93 MISG
MOFFETT ARPT   CLEAR     38  38 100 CALM      30.15R
SAN JOSE ARPT  CLEAR     41  38  89 E3        30.14R
$$
CAZ034-037-514>518-201500-
CENTRAL COAST

CITY           SKY/WX    TMP DP  RH WIND       PRES   REMARKS
WATSONVILLE    CLEAR     36  35  96 NW5       30.14R WCI  32
SALINAS        CLEAR     41  37  86 CALM      30.13R
MONTEREY       CLEAR     43  38  82 CALM      30.14R
SAN LUIS OBISP CLEAR     45  35  68 NW3       30.09S
SANTA MARIA    CLEAR     41  36  82 CALM      30.10R
$$
CAZ015-016-201500-
NORTHERN SACRAMENTO VALLEY

CITY           SKY/WX    TMP DP  RH WIND       PRES   REMARKS
REDDING        CLEAR     34  30  85 N3        30.13R
RED BLUFF      CLEAR     35  32  88 N6        30.14R WCI  30
OROVILLE       CLEAR     35  31  85 NE5       30.10S WCI  31
$$
CAZ016>018-201500-
SOUTHERN SACRAMENTO VALLEY

CITY           SKY/WX    TMP DP  RH WIND       PRES   REMARKS
AUBURN         CLEAR     32  30  93 E3        30.05R
BEALE AFB      CLEAR     35  32  87 N6        30.08R WCI  30
LINCOLN        FAIR     N/A N/A N/A E5        30.09R
MARYSVILLE     CLEAR     37  34  89 N5        30.10R WCI  33
SAC INTL ARPT  CLEAR     37  33  85 NW9       30.09R WCI  30
MATHER AIRPORT CLEAR     37  36  93 NW5       30.09R WCI  34
DOWNTOWN SAC   N/A       40  MM  MM MISG
SAC EXEC ARPT  CLEAR     40  34  79 NW7       30.10R
VACAVILLE      CLEAR     41  32  70 NW6       30.11R
TRAVIS AFB     CLEAR     35  34  97 W8        30.09R WCI  28
$$
CAZ019>021-201500-
SAN JOAQUIN VALLEY

CITY           SKY/WX    TMP DP  RH WIND       PRES   REMARKS
STOCKTON       CLEAR     40  37  89 W8        30.09R WCI  34
MODESTO        CLEAR     41  36  82 NW9       30.08R
MERCED         CLEAR     39  33  79 NW10      30.07S WCI  32
LEMOORE        CLEAR     36  33  89 N5        30.09R WCI  32
FRESNO         PTCLDY    40  37  89 NW9       30.07R WCI  34
HANFORD        CLEAR     34  33  96 CALM      30.09R
PORTERVILLE    CLOUDY    39  37  92 S5        30.10R
BAKERSFIELD    CLOUDY    44  40  85 CALM      30.08R
$$
CAZ011-012-071-201500-
NORTHERN MOUNTAINS

CITY           SKY/WX    TMP DP  RH WIND       PRES   REMARKS
YREKA          CLOUDY    28  27  96 CALM      30.15R
MOUNT SHASTA   CLEAR     29  26  89 VRB5      30.08R WCI  24
ALTURAS        MOCLDY    21  19  92 CALM      30.07R
$$
CAZ011-012-071-201500-
SIERRA NEVADA MTNS

CITY           SKY/WX    TMP DP  RH WIND       PRES   REMARKS
BLUE CANYON    CLEAR     25  17  72 VRB6      29.97S WCI  18
TAHOE VLY ARPT CLOUDY    19  17  92 CALM      29.96R
MAMMOTH LAKES  CLOUDY    21  18  88 W6        29.92R WCI  14
$$



USA.gov is the U.S. government's official web portal to all federal, state and local government web resources and services.